Regional Weather Roundup
Issued by NWS

Home | Current Version | Previous Version | Text Only | Print | Product List | Glossary Off
Versions: 1 2 3 4 5 6 7 8 9 10 11 12 13 14 15 16 17 18 19 20 21 22 23 24 25 26 27 28 29 30 31 32 33 34 35 36 37 38 39 40 41 42 43 44 45 46 47 48 49 50

731
ASUS44 KMEG 221910
RWRTN
TENNESSEE HOURLY STATE WEATHER ROUNDUP
NATIONAL WEATHER SERVICE MEMPHIS TN
200 PM CDT WED MAR 22 2017

TNZ002-004-019-021-049-052-054-088>092-222000-
WEST TENNESSEE

CITY           SKY/WX    TMP DP  RH WIND       PRES   REMARKS
MEMPHIS INTL   CLOUDY    50  41  71 NE12      30.29F
NWS MEMPHIS      N/A     59 N/A N/A MISG        N/A
JACKSON        SUNNY     60  32  34 NE8       30.30F
DYERSBURG      SUNNY     57  34  41 NE13      30.32F
SOMERVILLE     SUNNY     59  37  44 VRB7G13   30.26F
BOLIVAR        SUNNY     59  36  41 NE12      30.27F
PARIS          SUNNY     54  25  32 E12       30.32F
HUNTINGDON     SUNNY     55  28  35 NE10      30.31F
SAVANNAH       SUNNY     61  32  33 N8        30.26F
$$

TNZ008-025-027-028-033-062-065-066-222000-
NORTH MIDDLE TENNESSEE

CITY           SKY/WX    TMP DP  RH WIND       PRES   REMARKS
NASHVILLE      PTSUNNY   57  23  26 NE15G23   30.32F
PORTLAND       SUNNY     52  16  24 NE10G20   30.34F
CLARKSVILLE    SUNNY     55  23  28 NE17G23   30.34F
SMYRNA         PTSUNNY   57  25  29 N13G21    30.31F
COOKEVILLE     SUNNY     54  12  19 N8G21     30.28F
GALLATIN       SUNNY     54  19  26 N16       30.35F
CROSSVILLE     MOSUNNY   52  18  26 NE12G20   30.27F
$$

TNZ061-075-076-078-094-096-097-222000-
SOUTH MIDDLE TENNESSEE

CITY           SKY/WX    TMP DP  RH WIND       PRES   REMARKS
FAYETTEVILLE   SUNNY     57  34  41 NE13G20   30.25F
TULLAHOMA      SUNNY     55  10  16 NE12      30.27F
WINCHESTER     SUNNY     55  28  35 N14       30.26F
MCMINNVILLE    SUNNY     55  25  30 NE14      30.27F
COLUMBIA       SUNNY     57  28  33 NE13      30.28F
SHELBYVILLE    SUNNY     57  30  35 NE12      30.28F
$$

TNZ017-018-042-046-047-222000-
NORTHEAST TENNESSEE

CITY           SKY/WX    TMP DP  RH WIND       PRES   REMARKS
TRI CITIES     MOSUNNY   55  20  25 N9G23     30.26F
ELIZABETHTON   SUNNY     55  23  28 VRB7      30.24F
$$

TNZ012-013-036-069-073-074-222000-
CENTRAL EAST TENNESSEE

CITY           SKY/WX    TMP DP  RH WIND       PRES   REMARKS
KNOXVILLE      CLOUDY    57  19  22 N12G20    30.24F
OAK RIDGE      MOSUNNY   58  16  19 NE8G21    30.27F
DOWNTOWN KNOXV SUNNY     59  18  20 VRB7      30.26F
GATLINBURG     SUNNY     55  25  30 NW9       30.25S
MORRISTOWN     SUNNY     57  14  18 NE10      30.24F
JACKSBORO      SUNNY     55  19  24 NE12G17   30.30F
$$

TNZ083-085-099-222000-
SOUTHEAST TENNESSEE

CITY           SKY/WX    TMP DP  RH WIND       PRES   REMARKS
CHATTANOOGA    CLOUDY    62  20  19 N18       30.23F
$$

SKY/WX REPORTED AS FAIR MEANS FEW OR NO CLOUDS BELOW
12 THOUSAND FEET.





USA.gov is the U.S. government's official web portal to all federal, state and local government web resources and services.